Regional Weather Roundup
Issued by NWS

Home | Current Version | Previous Version | Text Only | Print | Product List | Glossary On
Versions: 1 2 3 4 5 6 7 8 9 10 11 12 13 14 15 16 17 18 19 20 21 22 23 24 25 26 27 28 29 30 31 32 33 34 35 36 37 38 39 40 41 42 43 44 45 46 47 48 49 50
000
ASUS44 KOUN 280310
RWROK

WEATHER ROUNDUP FOR OKLAHOMA
NATIONAL WEATHER SERVICE NORMAN OK
1000 PM CDT WED JUL 27 2016

NOTE: "FAIR" INDICATES FEW OR NO CLOUDS BELOW 12,000 FEET WITH NO
      SIGNIFICANT WEATHER AND/OR OBSTRUCTIONS TO VISIBILITY.

OKZ001>007-009>012-014-015-017-280400-
NORTHWEST OKLAHOMA AND THE PANHANDLE

CITY           SKY/WX    TMP DP  RH WIND       PRES   REMARKS
GAGE           PTCLDY    79  65  62 CALM      29.99R HAZE
GUYMON         CLOUDY    72  64  76 CALM      30.06R
ENID/WOODRING  MOCLDY    79  70  73 SE6       29.94R
$$

OKZ016-021>023-033>039-044-045-280400-
SOUTHWEST OKLAHOMA

CITY           SKY/WX    TMP DP  RH WIND       PRES   REMARKS
LAWTON/REGL    CLEAR     84  71  65 SE7       29.95R
LAWTON/FT SILL CLEAR     83  73  70 S9        29.94R
FREDERICK      CLEAR     87  72  60 SE8       29.93R HX  93
CLINTON        PTCLDY    83  70  64 SE7       29.99S
HOBART         PTCLDY    82  69  64 SE7       29.97R
ALTUS AFB      PTCLDY    84  70  61 SE8       29.95R
$$

OKZ018>020-024>031-280400-
CENTRAL OKLAHOMA

CITY           SKY/WX    TMP DP  RH WIND       PRES   REMARKS
OKLAHOMA CITY  PTCLDY    74  73  97 S3        29.95R
OKC/WILEY POST CLEAR     77  73  87 CALM      29.94R
OKC/TINKER AFB PTCLDY    75  72  90 SE2       29.95R
STILLWATER     CLOUDY    79  72  79 E5        29.94R
GUTHRIE        PTCLDY    79  74  84 SE5       29.94R
$$

OKZ008-013-054>072-280400-
NORTHEAST OKLAHOMA

CITY           SKY/WX    TMP DP  RH WIND       PRES   REMARKS
TULSA          CLOUDY    82  75  79 CALM      29.91R
TULSA/JONES    MOCLDY    78  77  96 SW3       29.93R
PONCA CITY     PTCLDY    80  69  69 SE6       29.95R
BARTLESVILLE   CLOUDY    78  74  87 SW3       29.94R
MUSKOGEE       CLOUDY    78  76  93 S5        29.94R
$$

OKZ032-040>043-046>053-073>077-280400-
SOUTH CENTRAL/SOUTHEAST OKLAHOMA

CITY           SKY/WX    TMP DP  RH WIND       PRES   REMARKS
ARDMORE/DWNTWN CLOUDY    77  73  88 CALM      29.95R
MCALESTER      CLOUDY    79  74  84 CALM      29.96R
$$




USA.gov is the U.S. government's official web portal to all federal, state and local government web resources and services.